Simultaneous Nadir Overpasses (SNOs) Predictions

Prediction of SNOs between GOES-17 and LANDSAT-8 Satellite Orbit:

Table of predicted SNOs for the next 14.0 days since TLE Epoch: 11/11/2023
Index Date Time (GOES-17) GOES-17 Lat,Lon LANDSAT-8 Lat,Lon Distance(km) Time Diff (sec)
1 11/11/2023 05:15:57 -0.01,-104.66 -0.19,-105.50 95.27 80
2 11/13/2023 05:01:08 -0.01,-104.66 0.47,-102.56 240.14 80
3 11/13/2023 17:22:23 0.01,-104.67 0.63,-107.72 345.50 80
4 11/15/2023 17:10:14 -0.00,-104.67 0.01,-104.76 10.65 80
5 11/17/2023 17:00:44 -0.01,-104.66 -0.64,-101.81 324.16 80
6 11/18/2023 05:22:07 0.01,-104.65 -0.50,-107.00 267.21 80
7 11/20/2023 05:07:16 0.01,-104.64 0.11,-104.04 67.85 80
8 11/22/2023 04:55:05 0.01,-104.64 0.74,-101.09 403.34 80
9 11/22/2023 17:16:21 -0.01,-104.64 0.34,-106.25 182.71 80
10 11/24/2023 17:06:50 -0.01,-104.64 -0.31,-103.29 153.28 80
